[[{"header":{"parameterUnit":"m.s-1","parameterCategory":1,"la1":30.2991,"la2":30.254,"lo1":-89.0895,"lo2":-89.0444,"dy":0.0017,"dx":0.0017,"nx":28,"ny":28,"refTime":"2025-07-23T03:00:00:Z","depth":0,"parameterNumber":2,"parameterNumberName":"U-component_of_WINDS"},"data":[0,0,0,0,0,0,0,0,0,0,0,0,0,0,0,0,0,0,0,0,0,0,0,0,0,0,0,0,0,0,0,0,0,0,0,0,0,0,0,0,0,0,0,0,0,0,0,0,0,0,0,0,0,0,0,0,0,0,-3.914,-3.9142,0,-3.9309,-3.9311,-3.9313,-3.9305,-3.9303,-3.9301,-3.9298,-3.9464,-3.947,-3.9477,0,0,0,0,0,0,0,0,0,0,0,0,0,-3.8803,-3.8809,-3.914,-3.9142,-3.9144,-3.9309,-3.9311,-3.9314,-3.9306,-3.9303,-3.93,-3.9297,-3.9462,-3.9469,-3.9477,0,0,0,0,0,0,0,0,0,0,0,0,0,-3.8958,-3.8811,-3.9139,-3.916,-3.9164,-3.9309,-3.9311,-3.9314,-3.9306,-3.9303,-3.9299,-3.9296,-3.9459,-3.9469,-3.9478,-3.9611,0,0,-3.9509,-3.9513,0,0,0,0,0,0,0,0,-3.8949,-3.897,-3.9155,-3.9159,-3.9163,-3.9283,-3.9253,-3.9414,-3.9307,-3.9252,-3.9298,-3.9294,-3.9406,-3.942,-3.9459,-3.9619,-3.9626,-3.951,-3.9516,-3.952,-3.9523,0,0,0,0,0,0,0,-3.8939,-3.8963,-3.9207,-3.9158,-3.9163,-3.9159,-3.9177,-3.9284,-3.9347,-3.9256,-3.9256,-3.9277,-3.9407,-3.945,-3.9463,-3.9629,-3.9509,-3.9518,-3.9524,-3.9528,-3.9907,-3.9911,0,0,0,0,0,0,-3.8924,-3.8954,-3.9201,-3.9212,-3.9046,-3.9168,-3.9188,-3.9248,-3.9346,-3.9357,-3.928,-3.9276,-3.9435,-3.9452,-3.9469,-3.9633,-3.952,-3.9529,-3.9535,-3.9903,-3.9908,-3.9912,0,0,0,0,0,0,-3.8917,-3.8946,-3.9194,-3.9083,-3.9114,-3.9178,-3.9245,-3.9253,-3.9296,-3.9363,-3.9374,-3.9312,-3.9432,-3.9455,-3.9577,-3.9638,-3.9534,-3.9543,-3.9898,-3.9904,-3.991,-3.996,0,0,0,0,0,0,-3.8907,-3.8944,-3.8997,-3.9084,-3.912,-3.9302,-3.9248,-3.9259,-3.9314,-3.931,-3.9396,-3.9407,-3.9431,-3.9562,-3.9587,-3.965,-3.9551,-3.9893,-3.9901,-3.9908,-3.9953,-3.9967,-3.9978,0,0,0,0,0,-3.8895,-3.9001,-3.8999,-3.9029,-3.9188,-3.9305,-3.9326,-3.9354,-3.9319,-3.9371,-3.9415,-3.9404,-3.9627,-3.9575,-3.9602,-3.9669,-3.9889,-3.9899,-3.9907,-3.9947,-3.9964,-3.9978,0,0,0,0,0,0,-3.8916,-3.9013,-3.9012,-3.915,-3.922,-3.9304,-3.9371,-3.9371,-3.945,-3.9443,-3.9472,-3.9491,-3.9614,-3.9653,-3.9593,-3.9803,-3.9753,-3.9768,-3.9774,-3.979,-3.9803,-3.9791,-3.9559,0,0,0,0,0,-3.8937,-3.9027,-3.9106,-3.922,-3.9255,-3.9307,-3.9359,-3.9376,-3.9448,-3.9476,-3.9529,-3.9597,-3.9683,-3.9738,-3.9821,-3.9958,-3.9977,-4.0017,-4.003,-4.0041,-4.0054,-4.013,-4.015,-3.9943,-3.9942,-3.9942,0,0,-3.898,-3.9045,-3.9099,-3.9226,-3.9282,-3.9372,-3.9332,-3.9429,-3.9496,-3.949,-3.961,-3.9651,-3.9729,-3.986,-3.992,-3.9896,-4.0115,-4.0052,-4.006,-4.0068,-4.0142,-4.0161,-4.0179,-3.9949,-3.9948,-3.9947,0,0,-3.9106,-3.9164,-3.9267,-3.9325,-3.9411,-3.9445,-3.947,-3.9555,-3.9583,-3.9704,-3.9702,-3.978,-3.9927,-3.9984,-4.0031,-4.0181,-4.0174,-4.0206,-4.0274,-4.0348,-4.0364,-4.0379,-4.0434,-4.0453,-4.0219,-4.0219,-4.0219,0,-3.9149,-3.9288,-3.9318,-3.9418,-3.9474,-3.9476,-3.9579,-3.9632,-3.974,-3.9778,-3.975,-3.9936,-3.9988,-4.0133,-4.017,-4.0208,-4.0237,-4.0197,-4.036,-4.0375,-4.0389,-4.0441,-4.0462,-4.0222,-4.0222,-4.0221,-4.0221,0,-3.9337,-3.9433,-3.9505,-3.9613,-3.9677,-3.9777,-3.9821,-3.9881,-3.9892,-3.9928,-4.0052,-4.0115,-4.0211,-4.0246,-4.0256,-4.0393,-4.0376,-4.0354,-4.0304,-4.0412,-4.0462,-4.0482,-4.0227,-4.0226,-4.0225,-4.0224,0,0,-3.948,-3.9606,-3.9632,-3.9682,-3.9778,-3.9852,-3.9952,-4.0049,-4.0101,-4.0174,-4.0259,-4.0384,-4.0365,-4.0419,-4.0435,-4.05,-4.0616,-4.0471,-4.0473,-4.0497,-4.0772,-4.0789,-4.0812,-4.0612,-4.0616,-4.0619,-4.0766,0,-3.9617,-3.9799,-3.983,-3.9988,-4.0077,-4.0081,-4.0168,-4.0236,-4.0272,-4.0352,-4.0391,-4.048,-4.0447,-4.0481,-4.0545,-4.0589,-4.0672,-4.0578,-4.069,-4.0694,-4.0672,-4.0838,-4.0856,-4.0992,-4.0786,-4.0789,-4.0791,0,-3.9801,-3.9885,-4.0053,-4.0139,-4.0178,-4.0256,-4.0349,-4.0425,-4.0501,-4.0523,-4.0585,-4.0594,-4.0696,-4.0641,-4.0783,-4.0718,-4.0765,-4.0794,-4.0799,-4.0812,-4.075,-4.0856,-4.1036,-4.1057,-4.0822,-4.0819,-4.0817,0,-3.9891,-4.0045,-4.0166,-4.0208,-4.0311,-4.0367,-4.0411,-4.0485,-4.0542,-4.0621,-4.0658,-4.0747,-4.0796,-4.0864,-4.0896,-4.0853,-4.1035,-4.0983,-4.1056,-4.1055,-4.1095,-4.1092,-4.1286,-4.1123,-4.1123,-4.1122,-4.1122,0,-4.0042,-4.0145,-4.0208,-4.0283,-4.0398,-4.0432,-4.0544,-4.0587,-4.0652,-4.0734,-4.0741,-4.0816,-4.0854,-4.0935,-4.0959,-4.1073,-4.1095,-4.1115,-4.112,-4.1115,-4.1113,-4.1147,-4.1139,-4.1128,-4.1127,-4.1126,-4.1125,0,-4.0162,-4.0209,-4.0342,-4.043,-4.0454,-4.0535,-4.0609,-4.0681,-4.0718,-4.0821,-4.0847,-4.0904,-4.1,-4.1038,-4.1154,-4.1171,-4.1303,-4.13,-4.1278,-4.128,-4.1352,-4.1345,-4.1576,-4.1608,-4.1422,-4.1424,-4.1425,0,-4.0256,-4.0337,-4.0434,-4.0492,-4.0539,-4.063,-4.069,-4.0725,-4.0786,-4.088,-4.094,-4.1037,-4.1116,-4.1269,-4.1319,-4.1408,-4.1408,-4.1483,-4.1421,-4.1415,-4.1411,-4.1407,-4.1415,-4.1494,-4.1496,-4.1498,-4.1499,0,-4.0419,-4.0439,-4.0526,-4.0622,-4.0693,-4.0769,-4.0843,-4.0888,-4.0935,-4.1003,-4.1104,-4.1165,-4.1286,-4.1382,-4.1474,-4.1517,-4.1516,-4.1518,-4.154,-4.1536,-4.1521,-4.1532,-4.1311,-4.1513,-4.1511,-4.151,-4.151,-4.1509,-4.053,-4.0602,-4.0684,-4.078,-4.0841,-4.091,-4.0983,-4.103,-4.1116,-4.1219,-4.1234,-4.1341,-4.1415,-4.154,-4.1587,-4.167,-4.165,-4.1682,-4.169,-4.1698,-4.1703,-4.1507,-4.1686,-4.1686,-4.1686,-4.1685,-4.1685,0,-4.0694,-4.0747,-4.0836,-4.0942,-4.1018,-4.1014,-4.1096,-4.1159,-4.1255,-4.1325,-4.1405,-4.152,-4.1613,-4.1671,-4.1765,-4.182,-4.1822,-4.1843,-4.184,-4.185,-4.1715,-4.1687,-4.184,-4.184,-4.184,-4.184,-4.184,-4.184,-4.0789,-4.0912,-4.0941,-4.1093,-4.1145,-4.1253,-4.1301,-4.1364,-4.1422,-4.1551,-4.163,-4.1669,-4.1734,-4.1833,-4.1918,-4.1932,-4.1967,-4.199,-4.2003,-4.1876,-4.186,-4.1844,-4.1819,-4.1997,-4.1997,-4.2132,-4.2134,-4.2135]},{"header":{"parameterUnit":"m.s-1","parameterCategory":1,"la1":30.2991,"la2":30.254,"lo1":-89.0895,"lo2":-89.0444,"dy":0.0017,"dx":0.0017,"nx":28,"ny":28,"refTime":"2025-07-23T03:00:00:Z","depth":0,"parameterNumber":3,"parameterNumberName":"V-component_of_WINDS"},"data":[0,0,0,0,0,0,0,0,0,0,0,0,0,0,0,0,0,0,0,0,0,0,0,0,0,0,0,0,0,0,0,0,0,0,0,0,0,0,0,0,0,0,0,0,0,0,0,0,0,0,0,0,0,0,0,0,0,0,-0.2327,-0.2327,0,-0.2278,-0.2277,-0.2277,-0.2192,-0.219,-0.2189,-0.2187,-0.2139,-0.214,-0.214,0,0,0,0,0,0,0,0,0,0,0,0,0,-0.2351,-0.2351,-0.2328,-0.2327,-0.2326,-0.2278,-0.2277,-0.2277,-0.2192,-0.219,-0.2188,-0.2187,-0.2139,-0.2139,-0.214,0,0,0,0,0,0,0,0,0,0,0,0,0,-0.2325,-0.2351,-0.2328,-0.2278,-0.2273,-0.2278,-0.2277,-0.2276,-0.2193,-0.219,-0.2188,-0.2186,-0.2139,-0.2139,-0.214,-0.2189,0,0,-0.2141,-0.2141,0,0,0,0,0,0,0,0,-0.2327,-0.2324,-0.2286,-0.2282,-0.2276,-0.2239,-0.2268,-0.2247,-0.2193,-0.2224,-0.2187,-0.2185,-0.2174,-0.2172,-0.2168,-0.2187,-0.2185,-0.2141,-0.2141,-0.2141,-0.2141,0,0,0,0,0,0,0,-0.2329,-0.2326,-0.2308,-0.2286,-0.228,-0.2259,-0.2253,-0.2264,-0.2213,-0.2221,-0.2214,-0.221,-0.2171,-0.2168,-0.2166,-0.2184,-0.2141,-0.2141,-0.2141,-0.2141,-0.2242,-0.2244,0,0,0,0,0,0,-0.2337,-0.2328,-0.2309,-0.2306,-0.2296,-0.2261,-0.2254,-0.2253,-0.2213,-0.2204,-0.2212,-0.2206,-0.2168,-0.2166,-0.2164,-0.222,-0.2141,-0.2141,-0.2141,-0.2239,-0.2242,-0.2245,0,0,0,0,0,0,-0.2338,-0.2337,-0.2311,-0.2315,-0.2311,-0.2263,-0.2263,-0.2253,-0.225,-0.2206,-0.2197,-0.2217,-0.2166,-0.2164,-0.2183,-0.2217,-0.2141,-0.2142,-0.2236,-0.224,-0.2243,-0.2332,0,0,0,0,0,0,-0.2339,-0.2337,-0.2356,-0.2317,-0.2311,-0.2332,-0.2265,-0.2254,-0.225,-0.2242,-0.2208,-0.2201,-0.2164,-0.2183,-0.2184,-0.2216,-0.2142,-0.2233,-0.2238,-0.2242,-0.2326,-0.2338,-0.2349,0,0,0,0,0,-0.234,-0.2383,-0.2357,-0.2355,-0.2332,-0.2334,-0.2331,-0.2287,-0.2253,-0.2271,-0.2243,-0.2202,-0.2213,-0.2186,-0.2186,-0.2219,-0.2231,-0.2237,-0.2242,-0.2321,-0.2336,-0.2349,0,0,0,0,0,0,-0.2428,-0.2377,-0.2348,-0.2379,-0.2361,-0.2319,-0.2341,-0.2304,-0.2297,-0.229,-0.2237,-0.223,-0.2257,-0.2239,-0.2211,-0.2264,-0.2215,-0.2221,-0.2275,-0.2289,-0.2301,-0.2305,-0.2142,0,0,0,0,0,-0.2451,-0.2456,-0.2411,-0.2443,-0.2435,-0.239,-0.2389,-0.2356,-0.2337,-0.2329,-0.2302,-0.2285,-0.2284,-0.2286,-0.2283,-0.2322,-0.2314,-0.2344,-0.2356,-0.2365,-0.2372,-0.2392,-0.2405,-0.2263,-0.2263,-0.2263,0,0,-0.2499,-0.2471,-0.2478,-0.246,-0.2442,-0.2449,-0.2384,-0.2394,-0.2399,-0.2331,-0.2348,-0.2328,-0.2305,-0.2335,-0.2347,-0.2321,-0.2409,-0.2373,-0.2381,-0.2382,-0.2399,-0.2413,-0.2425,-0.2267,-0.2266,-0.2266,0,0,-0.259,-0.2569,-0.2593,-0.2577,-0.2551,-0.252,-0.2526,-0.2489,-0.2473,-0.2489,-0.2438,-0.2443,-0.2443,-0.2429,-0.2422,-0.2506,-0.2468,-0.2506,-0.2567,-0.2587,-0.2599,-0.2608,-0.264,-0.2651,-0.2512,-0.2512,-0.2512,0,-0.2653,-0.2661,-0.2611,-0.2624,-0.2618,-0.2554,-0.2579,-0.2566,-0.2541,-0.2538,-0.2509,-0.2508,-0.2488,-0.2514,-0.2534,-0.253,-0.2536,-0.2511,-0.2601,-0.261,-0.2618,-0.2648,-0.2659,-0.2517,-0.2517,-0.2516,-0.2516,0,-0.274,-0.2746,-0.2769,-0.2745,-0.2741,-0.276,-0.2714,-0.2716,-0.2683,-0.2656,-0.2673,-0.2646,-0.2637,-0.264,-0.2609,-0.2662,-0.2647,-0.261,-0.256,-0.2638,-0.2664,-0.2675,-0.2524,-0.2522,-0.2521,-0.252,0,0,-0.2888,-0.2835,-0.2844,-0.2833,-0.2799,-0.2803,-0.2818,-0.2808,-0.2812,-0.2796,-0.2809,-0.2809,-0.2774,-0.2766,-0.2733,-0.275,-0.2819,-0.2711,-0.2709,-0.2733,-0.2877,-0.2907,-0.2921,-0.2793,-0.2795,-0.2796,-0.288,0,-0.2973,-0.2997,-0.2952,-0.2987,-0.2993,-0.2932,-0.2945,-0.2926,-0.29,-0.2901,-0.2872,-0.2875,-0.2828,-0.2823,-0.2837,-0.2808,-0.2848,-0.2801,-0.2806,-0.2807,-0.2816,-0.2935,-0.2967,-0.3047,-0.289,-0.2892,-0.2893,0,-0.3077,-0.3066,-0.3101,-0.3064,-0.3065,-0.3078,-0.3065,-0.3066,-0.3043,-0.3023,-0.3013,-0.2973,-0.2986,-0.2936,-0.2954,-0.2923,-0.2922,-0.2908,-0.291,-0.2911,-0.2857,-0.2941,-0.3071,-0.3085,-0.2908,-0.2907,-0.2906,0,-0.3184,-0.3177,-0.3197,-0.3189,-0.3146,-0.3157,-0.314,-0.3114,-0.311,-0.3098,-0.3096,-0.3086,-0.3082,-0.3075,-0.3033,-0.3,-0.3057,-0.3003,-0.3042,-0.3043,-0.3059,-0.3059,-0.3194,-0.3055,-0.3054,-0.3054,-0.3054,0,-0.3286,-0.3311,-0.3245,-0.3258,-0.3283,-0.323,-0.3258,-0.3234,-0.3211,-0.3219,-0.3164,-0.3173,-0.3116,-0.3118,-0.3085,-0.3106,-0.3104,-0.3089,-0.308,-0.3095,-0.3097,-0.3096,-0.309,-0.3057,-0.3057,-0.3056,-0.3056,0,-0.3411,-0.3368,-0.3386,-0.3343,-0.3333,-0.3354,-0.3317,-0.3327,-0.3297,-0.3307,-0.3306,-0.3259,-0.3259,-0.3215,-0.3206,-0.3184,-0.322,-0.3199,-0.3228,-0.3222,-0.3264,-0.3262,-0.3404,-0.3421,-0.327,-0.3271,-0.3272,0,-0.3481,-0.3498,-0.3456,-0.3457,-0.3442,-0.3444,-0.3439,-0.3387,-0.3385,-0.3359,-0.3373,-0.3368,-0.3361,-0.3364,-0.3329,-0.3322,-0.3303,-0.3353,-0.3301,-0.3316,-0.3306,-0.3306,-0.3308,-0.3365,-0.3367,-0.3368,-0.337,0,-0.3609,-0.3586,-0.3582,-0.357,-0.3566,-0.3554,-0.3539,-0.3543,-0.3486,-0.3486,-0.3485,-0.348,-0.3469,-0.3465,-0.3451,-0.3434,-0.3393,-0.3385,-0.3394,-0.3411,-0.3428,-0.3421,-0.326,-0.3383,-0.3382,-0.3381,-0.338,-0.338,-0.371,-0.3722,-0.3695,-0.3692,-0.3674,-0.3661,-0.3669,-0.3638,-0.3636,-0.3623,-0.3592,-0.3596,-0.3571,-0.3547,-0.3533,-0.3535,-0.351,-0.3523,-0.3527,-0.3531,-0.354,-0.3425,-0.3532,-0.3532,-0.3531,-0.3531,-0.3531,0,-0.3837,-0.3816,-0.3813,-0.3793,-0.3791,-0.375,-0.373,-0.3732,-0.3735,-0.3715,-0.3709,-0.3707,-0.3702,-0.3666,-0.3657,-0.3666,-0.3648,-0.3666,-0.3667,-0.3663,-0.3562,-0.3556,-0.3682,-0.3682,-0.3682,-0.3682,-0.3682,-0.3682,-0.3904,-0.3923,-0.3897,-0.3907,-0.3885,-0.3888,-0.3881,-0.3868,-0.3851,-0.3852,-0.3847,-0.3823,-0.3796,-0.3785,-0.3779,-0.3768,-0.3768,-0.3794,-0.3778,-0.3685,-0.367,-0.3657,-0.3651,-0.3794,-0.3794,-0.3878,-0.3879,-0.388]}]]